Time,TemperatureF,DewpointF,PressureIn,WindDirection,WindDirectionDegrees,WindSpeedMPH,WindSpeedGustMPH,Humidity,HourlyPrecipIn,Conditions,Clouds,dailyrainin,SoftwareType,DateUTC
2013-10-19 00:00:00,70.0,-99.9,29.96,ENE,60,14.0,14.0,-999,-99.99,,,-99.99,,2013-10-19 04:00:00,
2013-10-19 00:44:00,70.0,-99.9,29.96,ENE,60,14.0,14.0,-999,-99.99,,,-99.99,,2013-10-19 04:44:00,
2013-10-19 00:54:00,70.0,-99.9,29.96,ENE,60,14.0,14.0,-999,-99.99,,,-99.99,,2013-10-19 04:54:00,
2013-10-19 01:00:00,71.0,-99.9,29.93,ENE,70,11.0,14.0,-999,-99.99,,,-99.99,,2013-10-19 05:00:00,
2013-10-19 01:23:00,71.0,-99.9,29.93,ENE,70,11.0,14.0,-999,-99.99,,,-99.99,,2013-10-19 05:23:00,
2013-10-19 01:34:00,71.0,-99.9,29.93,ENE,70,11.0,14.0,-999,-99.99,,,-99.99,,2013-10-19 05:34:00,
2013-10-19 01:43:00,71.0,-99.9,29.93,ENE,70,11.0,14.0,-999,-99.99,,,-99.99,,2013-10-19 05:43:00,
2013-10-19 01:52:00,71.0,-99.9,29.93,ENE,70,11.0,14.0,-999,-99.99,,,-99.99,,2013-10-19 05:52:00,
2013-10-19 02:00:00,72.0,-99.9,29.92,SSW,210,7.0,11.0,-999,-99.99,,,-99.99,,2013-10-19 06:00:00,
2013-10-19 02:42:00,72.0,-99.9,29.92,SSW,210,7.0,11.0,-999,-99.99,,,-99.99,,2013-10-19 06:42:00,
2013-10-19 02:52:00,72.0,-99.9,29.92,SSW,210,7.0,11.0,-999,-99.99,,,-99.99,,2013-10-19 06:52:00,
2013-10-19 03:00:00,73.0,-99.9,29.91,SSW,200,8.0,10.0,-999,-99.99,,,-99.99,,2013-10-19 07:00:00,
2013-10-19 03:42:00,73.0,-99.9,29.91,SSW,200,8.0,10.0,-999,-99.99,,,-99.99,,2013-10-19 07:42:00,
2013-10-19 03:53:00,73.0,-99.9,29.91,SSW,200,8.0,10.0,-999,-99.99,,,-99.99,,2013-10-19 07:53:00,
2013-10-19 04:00:00,73.0,-99.9,29.91,SSW,200,6.0,7.0,-999,-99.99,,,-99.99,,2013-10-19 08:00:00,
2013-10-19 04:42:00,73.0,-99.9,29.91,SSW,200,6.0,7.0,-999,-99.99,,,-99.99,,2013-10-19 08:42:00,
2013-10-19 04:52:00,73.0,-99.9,29.91,SSW,200,6.0,7.0,-999,-99.99,,,-99.99,,2013-10-19 08:52:00,
2013-10-19 05:00:00,74.0,-99.9,29.90,SSW,210,7.0,9.0,-999,-99.99,,,-99.99,,2013-10-19 09:00:00,
2013-10-19 05:43:00,74.0,-99.9,29.90,SSW,210,7.0,9.0,-999,-99.99,,,-99.99,,2013-10-19 09:43:00,
2013-10-19 05:54:00,74.0,-99.9,29.90,SSW,210,7.0,9.0,-999,-99.99,,,-99.99,,2013-10-19 09:54:00,
2013-10-19 06:00:00,73.0,-99.9,29.91,WSW,250,5.0,6.0,-999,-99.99,,,-99.99,,2013-10-19 10:00:00,
2013-10-19 06:42:00,73.0,-99.9,29.91,WSW,250,5.0,6.0,-999,-99.99,,,-99.99,,2013-10-19 10:42:00,
2013-10-19 06:53:00,73.0,-99.9,29.91,WSW,250,5.0,6.0,-999,-99.99,,,-99.99,,2013-10-19 10:53:00,
2013-10-19 07:00:00,72.0,-99.9,29.91,WSW,240,5.0,7.0,-999,-99.99,,,-99.99,,2013-10-19 11:00:00,
2013-10-19 07:42:00,72.0,-99.9,29.91,WSW,240,5.0,7.0,-999,-99.99,,,-99.99,,2013-10-19 11:42:00,
2013-10-19 07:52:00,72.0,-99.9,29.91,WSW,240,5.0,7.0,-999,-99.99,,,-99.99,,2013-10-19 11:52:00,
2013-10-19 08:00:00,72.0,-99.9,29.92,WSW,250,6.0,6.0,-999,-99.99,,,-99.99,,2013-10-19 12:00:00,
2013-10-19 08:43:00,72.0,-99.9,29.92,WSW,250,6.0,6.0,-999,-99.99,,,-99.99,,2013-10-19 12:43:00,
2013-10-19 08:52:00,72.0,-99.9,29.92,WSW,250,6.0,6.0,-999,-99.99,,,-99.99,,2013-10-19 12:52:00,
2013-10-19 09:00:00,74.0,-99.9,29.93,West,270,7.0,8.0,-999,-99.99,,,-99.99,,2013-10-19 13:00:00,
2013-10-19 09:43:00,74.0,-99.9,29.93,West,270,7.0,8.0,-999,-99.99,,,-99.99,,2013-10-19 13:43:00,
2013-10-19 09:52:00,74.0,-99.9,29.93,West,270,7.0,8.0,-999,-99.99,,,-99.99,,2013-10-19 13:52:00,
2013-10-19 10:00:00,74.0,-99.9,29.93,WNW,290,6.0,7.0,-999,-99.99,,,-99.99,,2013-10-19 14:00:00,
2013-10-19 10:42:00,74.0,-99.9,29.93,WNW,290,6.0,7.0,-999,-99.99,,,-99.99,,2013-10-19 14:42:00,
2013-10-19 10:53:00,74.0,-99.9,29.93,WNW,290,6.0,7.0,-999,-99.99,,,-99.99,,2013-10-19 14:53:00,
2013-10-19 11:00:00,74.0,-99.9,29.93,WNW,300,6.0,7.0,-999,-99.99,,,-99.99,,2013-10-19 15:00:00,
2013-10-19 11:44:00,74.0,-99.9,29.93,WNW,300,6.0,7.0,-999,-99.99,,,-99.99,,2013-10-19 15:44:00,
2013-10-19 11:55:00,74.0,-99.9,29.93,WNW,300,6.0,7.0,-999,-99.99,,,-99.99,,2013-10-19 15:55:00,
2013-10-19 12:00:00,75.0,-99.9,29.92,West,280,3.0,5.0,-999,-99.99,,,-99.99,,2013-10-19 16:00:00,
2013-10-19 12:43:00,75.0,-99.9,29.92,West,280,3.0,5.0,-999,-99.99,,,-99.99,,2013-10-19 16:43:00,
2013-10-19 12:54:00,75.0,-99.9,29.92,West,280,3.0,5.0,-999,-99.99,,,-99.99,,2013-10-19 16:54:00,
2013-10-19 13:00:00,75.0,-99.9,29.89,South,170,7.0,8.0,-999,-99.99,,,-99.99,,2013-10-19 17:00:00,
2013-10-19 13:22:00,75.0,-99.9,29.89,South,170,7.0,8.0,-999,-99.99,,,-99.99,,2013-10-19 17:22:00,
2013-10-19 13:34:00,75.0,-99.9,29.89,South,170,7.0,8.0,-999,-99.99,,,-99.99,,2013-10-19 17:34:00,
2013-10-19 13:43:00,75.0,-99.9,29.89,South,170,7.0,8.0,-999,-99.99,,,-99.99,,2013-10-19 17:43:00,
2013-10-19 13:52:00,75.0,-99.9,29.89,South,170,7.0,8.0,-999,-99.99,,,-99.99,,2013-10-19 17:52:00,
2013-10-19 14:00:00,73.0,-99.9,29.88,WSW,240,5.0,6.0,-999,-99.99,,,-99.99,,2013-10-19 18:00:00,
2013-10-19 14:42:00,73.0,-99.9,29.88,WSW,240,5.0,6.0,-999,-99.99,,,-99.99,,2013-10-19 18:42:00,
2013-10-19 14:52:00,73.0,-99.9,29.88,WSW,240,5.0,6.0,-999,-99.99,,,-99.99,,2013-10-19 18:52:00,
2013-10-19 15:00:00,73.0,-99.9,29.86,SW,230,6.0,8.0,-999,-99.99,,,-99.99,,2013-10-19 19:00:00,
2013-10-19 15:42:00,73.0,-99.9,29.86,SW,230,6.0,8.0,-999,-99.99,,,-99.99,,2013-10-19 19:42:00,
2013-10-19 15:52:00,73.0,-99.9,29.86,SW,230,6.0,8.0,-999,-99.99,,,-99.99,,2013-10-19 19:52:00,
2013-10-19 16:00:00,73.0,-99.9,29.86,SSW,200,5.0,5.0,-999,-99.99,,,-99.99,,2013-10-19 20:00:00,
2013-10-19 16:42:00,73.0,-99.9,29.86,SSW,200,5.0,5.0,-999,-99.99,,,-99.99,,2013-10-19 20:42:00,
2013-10-19 16:52:00,73.0,-99.9,29.86,SSW,200,5.0,5.0,-999,-99.99,,,-99.99,,2013-10-19 20:52:00,
2013-10-19 17:00:00,73.0,-99.9,29.85,SSW,200,6.0,6.0,-999,-99.99,,,-99.99,,2013-10-19 21:00:00,
2013-10-19 17:22:00,73.0,-99.9,29.85,SSW,200,6.0,6.0,-999,-99.99,,,-99.99,,2013-10-19 21:22:00,
2013-10-19 17:34:00,73.0,-99.9,29.85,SSW,200,6.0,6.0,-999,-99.99,,,-99.99,,2013-10-19 21:34:00,
2013-10-19 17:44:00,73.0,-99.9,29.85,SSW,200,6.0,6.0,-999,-99.99,,,-99.99,,2013-10-19 21:44:00,
2013-10-19 17:54:00,73.0,-99.9,29.85,SSW,200,6.0,6.0,-999,-99.99,,,-99.99,,2013-10-19 21:54:00,
2013-10-19 18:00:00,73.0,-99.9,29.86,SW,230,9.0,16.0,-999,-99.99,,,-99.99,,2013-10-19 22:00:00,
2013-10-19 18:43:00,73.0,-99.9,29.86,SW,230,9.0,16.0,-999,-99.99,,,-99.99,,2013-10-19 22:43:00,
2013-10-19 18:53:00,73.0,-99.9,29.86,SW,230,9.0,16.0,-999,-99.99,,,-99.99,,2013-10-19 22:53:00,
2013-10-19 19:00:00,72.0,-99.9,29.86,SW,230,7.0,9.0,-999,-99.99,,,-99.99,,2013-10-19 23:00:00,
2013-10-19 19:42:00,72.0,-99.9,29.86,SW,230,7.0,9.0,-999,-99.99,,,-99.99,,2013-10-19 23:42:00,
2013-10-19 19:53:00,72.0,-99.9,29.86,SW,230,7.0,9.0,-999,-99.99,,,-99.99,,2013-10-19 23:53:00,
2013-10-19 20:00:00,73.0,-99.9,29.87,WSW,240,6.0,7.0,-999,-99.99,,,-99.99,,2013-10-20 00:00:00,
2013-10-19 20:42:00,73.0,-99.9,29.87,WSW,240,6.0,7.0,-999,-99.99,,,-99.99,,2013-10-20 00:42:00,
2013-10-19 20:52:00,73.0,-99.9,29.87,WSW,240,6.0,7.0,-999,-99.99,,,-99.99,,2013-10-20 00:52:00,
2013-10-19 21:00:00,73.0,-99.9,29.88,WSW,240,7.0,11.0,-999,-99.99,,,-99.99,,2013-10-20 01:00:00,
2013-10-19 21:42:00,73.0,-99.9,29.88,WSW,240,7.0,11.0,-999,-99.99,,,-99.99,,2013-10-20 01:42:00,
2013-10-19 21:53:00,73.0,-99.9,29.88,WSW,240,7.0,11.0,-999,-99.99,,,-99.99,,2013-10-20 01:53:00,
2013-10-19 23:00:00,-999.0,-99.9,-100.00,WSW,240,6.0,7.0,-999,-99.99,,,-99.99,,2013-10-20 03:00:00,
2013-10-19 23:44:00,73.0,-99.9,29.88,WSW,240,6.0,7.0,-999,-99.99,,,-99.99,,2013-10-20 03:44:00,
2013-10-19 23:55:00,73.0,-99.9,29.88,WSW,240,6.0,7.0,-999,-99.99,,,-99.99,,2013-10-20 03:55:00,